St. Jones River Kitts Hummock-NERR DE USA current weather conditions

sailwx.info

Wind from 094 at 4 knots gusting 7

Air temperature 5.3° C
Dewpoint -3.0° C

Last reported at 2019-Dec-08 15:00 UTC.
Time now 2019-Dec-08 15:17 UTC

Location: N 39°05' W 075°26'.
View on Google Maps.

See reports from other nearby stations

  
Tides and Currents Weather Stations Pressure Air Temp Water Temp Dewpoint Dewpoint Depression Visibility Wind Speed Wind Dir Waves Ship Positions
date/time (UTC)wind fromknots sea level pressurealtimeterstation pressurevisibilityair tempwater tempwave heightnotes
2019-Dec-08 15:00 094 4 gusting 7 5.3
2019-Dec-08 14:55 092 4 gusting 7 5.2
2019-Dec-08 14:50 098 4 gusting 8 5.4
2019-Dec-08 14:45 106 4 gusting 6 5.1
2019-Dec-08 14:40 103 4 gusting 8 5.1
2019-Dec-08 14:35 108 3 gusting 9 5.4
2019-Dec-08 14:30 103 4 gusting 6 5.1
2019-Dec-08 14:25 101 3 gusting 7 4.9
2019-Dec-08 14:20 109 4 gusting 7 4.6
2019-Dec-08 14:15 106 4 gusting 8 4.4
2019-Dec-08 14:10 112 5 gusting 8 4.3
2019-Dec-08 14:05 112 5 gusting 9 4.3
2019-Dec-08 14:00 103 4 gusting 7 4.2
2019-Dec-08 13:55 111 3 gusting 8 4.3
2019-Dec-08 13:50 104 3 gusting 6 4.0
2019-Dec-08 13:45 107 3 gusting 7 3.9
2019-Dec-08 13:40 115 4 gusting 7 3.8
2019-Dec-08 13:35 111 3 gusting 6 3.8
2019-Dec-08 13:30 113 3 gusting 5 3.5
2019-Dec-08 13:25 116 3 gusting 6 3.4
2019-Dec-08 13:20 116 2 gusting 4 3.1
2019-Dec-08 13:15 115 2 gusting 5 3.0
2019-Dec-08 13:10 113 2 gusting 5 2.8
2019-Dec-08 13:05 121 2 gusting 3 2.6
2019-Dec-08 13:00 124 1 gusting 3 2.3
2019-Dec-08 12:55 114 2 gusting 5 2.1
2019-Dec-08 12:50 105 1 gusting 4 2.1
2019-Dec-08 12:45 102 1 gusting 3 1.9
2019-Dec-08 12:40 095 1 gusting 2 1.5
2019-Dec-08 12:35 076 1 gusting 2 1.1
2019-Dec-08 12:30 098 1 gusting 2 1.0
2019-Dec-08 12:25 096 1 gusting 3 0.8
2019-Dec-08 12:20 101 1 gusting 4 0.4
2019-Dec-08 12:15 094 1 gusting 2 0.2
2019-Dec-08 12:10 065 0 gusting 1 0.3
2019-Dec-08 12:05 088 1 gusting 2 0.3
2019-Dec-08 12:00 078 0 gusting 2 0.2
2019-Dec-08 11:55 096 1 gusting 3 0.0
2019-Dec-08 11:50 088 0 gusting 0 -0.1
2019-Dec-08 11:45 028 0 gusting 3 -0.1
2019-Dec-08 11:40 092 0 gusting 2 -0.3
2019-Dec-08 11:35 028 0 gusting 1 -0.4
2019-Dec-08 11:30 032 0 gusting 1 -0.4
2019-Dec-08 11:25 059 0 gusting 2 -0.5
2019-Dec-08 11:20 031 1 gusting 3 -0.3
2019-Dec-08 11:15 040 0 gusting 1 -0.3
2019-Dec-08 11:10 028 0 gusting 1 -0.0
2019-Dec-08 11:05 034 0 gusting 1 -0.0
2019-Dec-08 11:00 081 0 gusting 1 -0.0
2019-Dec-08 10:55 074 0 gusting 2 -0.0
2019-Dec-08 10:50 101 0 gusting 1 -0.3
2019-Dec-08 10:45 026 0 gusting 1 -0.4
2019-Dec-08 10:40 030 0 gusting 3 -0.3
2019-Dec-08 10:35 065 0 gusting 1 -0.2
2019-Dec-08 10:30 028 1 gusting 2 -0.2
2019-Dec-08 10:25 028 0 gusting 1 -0.2
2019-Dec-08 10:20 027 1 gusting 2 -0.0
2019-Dec-08 10:15 039 1 gusting 2 -0.1
2019-Dec-08 10:10 032 1 gusting 2 0.0
2019-Dec-08 10:05 036 1 gusting 2 -0.0
2019-Dec-08 10:00 023 1 gusting 2 -0.1
2019-Dec-08 09:55 033 1 gusting 3 -0.2
2019-Dec-08 09:50 039 0 gusting 1 -0.3
2019-Dec-08 09:45 031 0 gusting 3 -0.2
2019-Dec-08 09:40 025 1 gusting 2 -0.3
2019-Dec-08 09:35 029 1 gusting 1 0.1
2019-Dec-08 09:30 035 1 gusting 2 0.3
2019-Dec-08 09:25 031 1 gusting 2 0.2
2019-Dec-08 09:20 030 1 gusting 3 0.3
2019-Dec-08 09:15 026 1 gusting 4 0.4
2019-Dec-08 09:10 033 2 gusting 4 0.5
2019-Dec-08 09:05 046 1 gusting 3 0.4
2019-Dec-08 09:00 037 2 gusting 4 0.3
2019-Dec-08 08:55 039 2 gusting 4 0.3
2019-Dec-08 08:50 039 2 gusting 3 0.4
2019-Dec-08 08:45 042 2 gusting 4 0.5
2019-Dec-08 08:40 042 1 gusting 2 0.3
2019-Dec-08 08:35 041 2 gusting 4 0.4
2019-Dec-08 08:30 054 1 gusting 2 0.4
2019-Dec-08 08:25 045 2 gusting 4 0.6
2019-Dec-08 08:20 043 2 gusting 7 0.5
2019-Dec-08 08:15 043 1 gusting 5 0.3
2019-Dec-08 08:10 051 1 gusting 2 0.2
2019-Dec-08 08:05 059 1 gusting 3 0.3
2019-Dec-08 08:00 026 1 gusting 3 0.2
2019-Dec-08 07:55 036 1 gusting 3 0.3
2019-Dec-08 07:50 038 2 gusting 4 0.2
2019-Dec-08 07:45 028 1 gusting 2 0.2
2019-Dec-08 07:40 042 1 gusting 3 0.2
2019-Dec-08 07:35 039 1 gusting 3 0.1
2019-Dec-08 07:30 035 2 gusting 5 0.1
2019-Dec-08 07:25 043 2 gusting 4 -0.0
2019-Dec-08 07:20 031 1 gusting 3 0.0
2019-Dec-08 07:15 045 1 gusting 4 0.2
2019-Dec-08 07:10 035 1 gusting 5 0.5
2019-Dec-08 07:05 043 1 gusting 3 0.3
2019-Dec-08 07:00 043 2 gusting 3 0.4
2019-Dec-08 06:55 046 2 gusting 6 0.5
2019-Dec-08 06:50 050 2 gusting 5 0.4
2019-Dec-08 06:45 038 1 gusting 3 0.4
2019-Dec-08 06:40 036 2 gusting 3 0.5
2019-Dec-08 06:35 040 2 gusting 5 0.4
2019-Dec-08 06:30 034 2 gusting 4 0.2
2019-Dec-08 06:25 037 2 gusting 5 0.1
2019-Dec-08 06:20 034 2 gusting 6 0.1
2019-Dec-08 06:15 040 1 gusting 3 -0.1
2019-Dec-08 06:10 029 1 gusting 3 0.1
2019-Dec-08 06:05 042 1 gusting 3 0.2
2019-Dec-08 06:00 039 2 gusting 3 0.3
2019-Dec-08 05:55 038 2 gusting 5 0.2
2019-Dec-08 05:50 033 2 gusting 5 -0.2
2019-Dec-08 05:45 035 1 gusting 4 -0.8
2019-Dec-08 05:40 031 2 gusting 4 -2.3
2019-Dec-08 05:35 010 1 gusting 2 -4.1
2019-Dec-08 05:30 346 0 gusting 1 -5.0
2019-Dec-08 05:25 302 0 gusting 1 -5.3
2019-Dec-08 05:20 -5.5
2019-Dec-08 05:15 -5.4
2019-Dec-08 05:10 -5.2
2019-Dec-08 05:05 -5.0
2019-Dec-08 05:00 028 0 gusting 0 -4.9
2019-Dec-08 04:55 028 0 gusting 0 -5.0
2019-Dec-08 04:50 028 0 gusting 1 -5.0
2019-Dec-08 04:45 -4.9
2019-Dec-08 04:40 -4.9
2019-Dec-08 04:35 -4.9
2019-Dec-08 04:30 -5.1
2019-Dec-08 04:25 -5.1
2019-Dec-08 04:20 -4.8
2019-Dec-08 04:15 -4.6
2019-Dec-08 04:10 028 0 gusting 0 -5.0
2019-Dec-08 04:05 028 0 gusting 0 -4.6
2019-Dec-08 04:00 -4.5
2019-Dec-08 03:55 -4.6
2019-Dec-08 03:50 -4.7
2019-Dec-08 03:45 -4.6
2019-Dec-08 03:40 -4.5
2019-Dec-08 03:35 -4.2
2019-Dec-08 03:30 -4.1
2019-Dec-08 03:25 -4.1
2019-Dec-08 03:20 -4.2
2019-Dec-08 03:15 -4.0
2019-Dec-08 03:10 -3.8
2019-Dec-08 03:05 -3.9
2019-Dec-08 03:00 -3.9
2019-Dec-08 02:55 -3.7
2019-Dec-08 02:50 -3.7
2019-Dec-08 02:45 -3.7
2019-Dec-08 02:40 -3.6
2019-Dec-08 02:35 028 0 gusting 1 -3.6
2019-Dec-08 02:30 028 0 gusting 1 -3.9
2019-Dec-08 02:25 028 0 gusting 1 -4.1
2019-Dec-08 02:20 -4.1
2019-Dec-08 02:15 -3.9
2019-Dec-08 02:10 029 0 gusting 0 -3.8
2019-Dec-08 02:05 -3.8
2019-Dec-08 02:00 -3.6
2019-Dec-08 01:55 029 0 gusting 0 -3.6
2019-Dec-08 01:50 029 0 gusting 1 -3.6
2019-Dec-08 01:45 029 0 gusting 0 -3.7
2019-Dec-08 01:40 -3.9
2019-Dec-08 01:35 -3.8
2019-Dec-08 01:30 -3.7
2019-Dec-08 01:25 -3.7
2019-Dec-08 01:20 -3.6
2019-Dec-08 01:15 -3.6
2019-Dec-08 01:10 -3.6
2019-Dec-08 01:05 -3.6
2019-Dec-08 01:00 -3.5
2019-Dec-08 00:55 -3.2
2019-Dec-08 00:50 -2.9
2019-Dec-08 00:45 -3.0
2019-Dec-08 00:40 -3.2
2019-Dec-08 00:35 -3.1
2019-Dec-08 00:30 -3.1
2019-Dec-08 00:25 -3.1
2019-Dec-08 00:20 029 0 gusting 0 -3.1
2019-Dec-08 00:15 -3.2
2019-Dec-08 00:10 -3.0
2019-Dec-08 00:05 029 0 gusting 0 -2.9
2019-Dec-08 00:00 -2.7
2019-Dec-07 23:55 -2.3
2019-Dec-07 23:50 -2.2
2019-Dec-07 23:45 -2.3
2019-Dec-07 23:40 -2.4
2019-Dec-07 23:35 -2.3
2019-Dec-07 23:30 -2.3
2019-Dec-07 23:25 -2.4
2019-Dec-07 23:20 -2.4
2019-Dec-07 23:15 -2.4
2019-Dec-07 23:10 029 0 gusting 0 -2.1
2019-Dec-07 23:05 029 0 gusting 1 -1.7
2019-Dec-07 23:00 009 0 gusting 0 -1.3
2019-Dec-07 22:55 -1.3
2019-Dec-07 22:50 004 0 gusting 0 -1.3
2019-Dec-07 22:45 -1.1
2019-Dec-07 22:40 -1.2
2019-Dec-07 22:35 004 0 gusting 0 -0.9
2019-Dec-07 22:30 004 0 gusting 0 -0.6
2019-Dec-07 22:25 004 0 gusting 0 -0.7
2019-Dec-07 22:20 004 0 gusting 1 -0.4
2019-Dec-07 22:15 001 0 gusting 1 0.3
2019-Dec-07 22:10 338 1 gusting 1 0.7
2019-Dec-07 22:05 338 0 gusting 1 0.5
2019-Dec-07 22:00 334 0 gusting 1 0.9
2019-Dec-07 21:55 324 0 gusting 2 1.4
2019-Dec-07 21:50 312 0 gusting 2 1.1
2019-Dec-07 21:45 331 0 gusting 1 1.5
2019-Dec-07 21:40 311 0 gusting 1 1.9
2019-Dec-07 21:35 308 1 gusting 1 2.3
2019-Dec-07 21:30 319 1 gusting 2 2.4
2019-Dec-07 21:25 329 2 gusting 3 2.8
2019-Dec-07 21:20 326 1 gusting 2 3.0
2019-Dec-07 21:15 323 1 gusting 3 3.4
2019-Dec-07 21:10 309 2 gusting 3 3.7
2019-Dec-07 21:05 319 3 gusting 7 3.9
2019-Dec-07 21:00 315 2 gusting 3 4.1
2019-Dec-07 20:55 321 3 gusting 5 4.2
2019-Dec-07 20:50 320 3 gusting 5 4.2
2019-Dec-07 20:45 326 3 gusting 5 4.3
2019-Dec-07 20:40 328 4 gusting 7 4.4
2019-Dec-07 20:35 326 2 gusting 4 4.5
2019-Dec-07 20:30 336 2 gusting 6 4.6
2019-Dec-07 20:25 322 3 gusting 8 4.6
2019-Dec-07 20:20 313 5 gusting 8 4.6
2019-Dec-07 20:15 324 3 gusting 7 4.8
2019-Dec-07 20:10 319 5 gusting 9 4.7
2019-Dec-07 20:05 339 3 gusting 8 4.8
2019-Dec-07 20:00 326 4 gusting 8 4.9
2019-Dec-07 19:55 300 3 gusting 7 5.1
2019-Dec-07 19:50 316 4 gusting 7 4.9
2019-Dec-07 19:45 312 5 gusting 8 5.0
2019-Dec-07 19:40 303 4 gusting 7 5.0
2019-Dec-07 19:35 331 4 gusting 6 5.1
2019-Dec-07 19:30 314 5 gusting 9 5.2
2019-Dec-07 19:25 296 4 gusting 6 4.9
2019-Dec-07 19:20 295 4 gusting 8 5.0
2019-Dec-07 19:15 297 4 gusting 8 5.0
2019-Dec-07 19:10 280 4 gusting 8 5.1
2019-Dec-07 19:05 309 4 gusting 8 5.0
2019-Dec-07 19:00 311 4 gusting 9 5.3
2019-Dec-07 18:55 292 5 gusting 9 5.2
2019-Dec-07 18:50 325 3 gusting 6 5.3
2019-Dec-07 18:45 312 5 gusting 8 4.8
2019-Dec-07 18:40 300 5 gusting 9 4.8
2019-Dec-07 18:35 318 3 gusting 7 4.5
2019-Dec-07 18:30 315 4 gusting 8 4.5
2019-Dec-07 18:25 306 5 gusting 10 4.6
2019-Dec-07 18:20 328 4 gusting 9 4.8
2019-Dec-07 18:15 313 4 gusting 8 4.5
2019-Dec-07 18:10 310 6 gusting 11 4.4
2019-Dec-07 18:05 305 5 gusting 8 4.8
2019-Dec-07 18:00 324 4 gusting 9 4.8
2019-Dec-07 17:55 325 5 gusting 9 4.7
2019-Dec-07 17:50 314 7 gusting 11 4.8
2019-Dec-07 17:45 312 4 gusting 7 4.8
2019-Dec-07 17:40 329 5 gusting 8 4.7
2019-Dec-07 17:35 324 5 gusting 7 4.7
2019-Dec-07 17:30 281 3 gusting 6 4.6
2019-Dec-07 17:25 320 4 gusting 7 4.7
2019-Dec-07 17:20 322 3 gusting 6 4.9
2019-Dec-07 17:15 002 3 gusting 6 4.9
2019-Dec-07 17:10 289 5 gusting 9 5.1
2019-Dec-07 17:05 307 5 gusting 8 5.3
2019-Dec-07 17:00 346 4 gusting 10 5.0
2019-Dec-07 16:55 329 5 gusting 9 5.1
2019-Dec-07 16:50 322 4 gusting 8 5.3
2019-Dec-07 16:45 354 3 gusting 6 5.2
2019-Dec-07 16:40 012 3 gusting 6 4.9
2019-Dec-07 16:35 350 3 gusting 6 4.7
2019-Dec-07 16:30 003 3 gusting 6 4.8
2019-Dec-07 16:25 353 3 gusting 6 4.5
2019-Dec-07 16:20 007 4 gusting 9 4.7
2019-Dec-07 16:15 010 4 gusting 8 4.7
2019-Dec-07 16:10 034 4 gusting 7 4.8
2019-Dec-07 16:05 007 3 gusting 6 4.9
2019-Dec-07 16:00 039 2 gusting 7 5.1
2019-Dec-07 15:55 024 3 gusting 7 5.1
2019-Dec-07 15:50 037 3 gusting 5 4.9
2019-Dec-07 15:45 005 4 gusting 8 4.8
2019-Dec-07 15:40 022 1 gusting 6 4.5
2019-Dec-07 15:35 024 3 gusting 6 4.6
2019-Dec-07 15:30 018 3 gusting 5 4.7
2019-Dec-07 15:25 031 3 gusting 6 4.9
2019-Dec-07 15:20 360 4 gusting 8 4.6
2019-Dec-07 15:15 015 4 gusting 8 4.6
2019-Dec-07 15:10 016 4 gusting 9 4.8
2019-Dec-07 15:05 023 5 gusting 8 4.5
2019-Dec-07 15:00 024 3 gusting 6 4.6
2019-Dec-07 14:55 355 3 gusting 7 4.5
2019-Dec-07 14:50 012 5 gusting 9 4.3
2019-Dec-07 14:45 004 4 gusting 9 4.1
2019-Dec-07 14:40 360 4 gusting 7 4.2
2019-Dec-07 14:35 005 2 gusting 7 4.2
2019-Dec-07 14:30 023 3 gusting 6 3.9
2019-Dec-07 14:25 339 2 gusting 6 4.1
2019-Dec-07 14:20 359 3 gusting 7 3.7
2019-Dec-07 14:15 006 3 gusting 6 3.7
2019-Dec-07 14:10 027 6 gusting 8 3.5
2019-Dec-07 14:05 011 3 gusting 6 3.6
2019-Dec-07 14:00 336 2 gusting 4 3.6
2019-Dec-07 13:55 008 2 gusting 5 3.5
2019-Dec-07 13:50 344 1 gusting 3 3.3
2019-Dec-07 13:45 328 1 gusting 3 3.0
2019-Dec-07 13:40 315 1 gusting 2 2.8
2019-Dec-07 13:35 320 1 gusting 2 2.6
2019-Dec-07 13:30 322 0 gusting 1 2.5
2019-Dec-07 13:25 322 0 gusting 1 2.1
2019-Dec-07 13:20 312 0 gusting 1 1.9
2019-Dec-07 13:15 297 0 gusting 0 1.6
2019-Dec-07 13:10 1.1
2019-Dec-07 13:05 297 0 gusting 0 0.2
2019-Dec-07 13:00 311 0 gusting 1 -0.2
2019-Dec-07 12:55 348 0 gusting 1 -1.0
2019-Dec-07 12:50 344 0 gusting 1 -1.3
2019-Dec-07 12:45 320 0 gusting 1 -1.5
2019-Dec-07 12:40 294 1 gusting 1 -1.7
2019-Dec-07 12:35 307 1 gusting 1 -2.1
2019-Dec-07 12:30 305 0 gusting 1 -2.0
2019-Dec-07 12:25 304 0 gusting 1 -2.3
2019-Dec-07 12:20 304 0 gusting 1 -2.5
2019-Dec-07 12:15 303 0 gusting 1 -2.5
2019-Dec-07 12:10 302 1 gusting 1 -2.1
2019-Dec-07 12:05 303 1 gusting 1 -1.7
2019-Dec-07 12:00 314 1 gusting 2 -1.9
2019-Dec-07 11:55 306 0 gusting 1 -1.5
2019-Dec-07 11:50 309 0 gusting 1 -1.1
2019-Dec-07 11:45 296 0 gusting 1 -0.7
2019-Dec-07 11:40 280 1 gusting 1 -0.8
2019-Dec-07 11:35 297 1 gusting 2 -0.7
2019-Dec-07 11:30 331 0 gusting 2 -0.3
2019-Dec-07 11:25 301 0 gusting 1 0.3
2019-Dec-07 11:20 338 0 gusting 2 0.9
2019-Dec-07 11:15 007 2 gusting 4 1.1
2019-Dec-07 11:10 011 2 gusting 5 1.4
2019-Dec-07 11:05 008 3 gusting 4 1.6
2019-Dec-07 11:00 001 3 gusting 7 1.7
2019-Dec-07 10:55 356 3 gusting 6 1.6
2019-Dec-07 10:50 006 3 gusting 7 1.6
2019-Dec-07 10:45 007 2 gusting 4 1.6
2019-Dec-07 10:40 355 3 gusting 8 1.7
2019-Dec-07 10:35 349 2 gusting 5 1.7
2019-Dec-07 10:30 343 2 gusting 6 1.7
2019-Dec-07 10:25 345 1 gusting 4 1.7
2019-Dec-07 10:20 337 1 gusting 4 1.9
2019-Dec-07 10:15 004 3 gusting 8 2.1
2019-Dec-07 10:10 1.9
2019-Dec-07 10:05 011 4 gusting 8 2.0
2019-Dec-07 10:00 008 3 gusting 7 1.9
2019-Dec-07 09:55 002 3 gusting 6 1.8
2019-Dec-07 09:50 008 3 gusting 6 1.7
2019-Dec-07 09:45 005 3 gusting 7 1.4
2019-Dec-07 09:40 356 2 gusting 5 1.3
2019-Dec-07 09:35 349 2 gusting 5 1.0
2019-Dec-07 09:30 349 1 gusting 4 0.9
2019-Dec-07 09:25 012 1 gusting 4 1.0
2019-Dec-07 09:20 012 1 gusting 3 0.9
2019-Dec-07 09:15 320 0 gusting 2 0.4
2019-Dec-07 09:10 021 0 gusting 1 0.1
2019-Dec-07 09:05 315 0 gusting 2 0.1
2019-Dec-07 09:00 324 1 gusting 2 0.1
2019-Dec-07 08:55 026 0 gusting 1 0.3
2019-Dec-07 08:50 305 0 gusting 1 0.4
2019-Dec-07 08:45 299 0 gusting 1 0.6
2019-Dec-07 08:40 309 0 gusting 1 0.7
2019-Dec-07 08:35 306 0 gusting 1 0.9
2019-Dec-07 08:30 299 0 gusting 1 0.9
2019-Dec-07 08:25 302 1 gusting 2 1.1
2019-Dec-07 08:20 303 1 gusting 1 1.3
2019-Dec-07 08:15 305 1 gusting 2 1.4
2019-Dec-07 08:10 303 1 gusting 2 1.7
2019-Dec-07 08:05 301 1 gusting 3 2.1
2019-Dec-07 08:00 297 1 gusting 3 2.4
2019-Dec-07 07:55 297 1 gusting 2 2.6
2019-Dec-07 07:50 308 1 gusting 2 2.7
2019-Dec-07 07:45 307 1 gusting 3 3.2
2019-Dec-07 07:40 307 2 gusting 5 3.4
2019-Dec-07 07:35 324 2 gusting 4 3.8
2019-Dec-07 07:30 345 2 gusting 6 3.9
2019-Dec-07 07:25 348 2 gusting 5 3.9
2019-Dec-07 07:20 351 3 gusting 6 4.0
2019-Dec-07 07:15 015 4 gusting 8 4.1
2019-Dec-07 07:10 340 2 gusting 6 4.2
2019-Dec-07 07:05 003 3 gusting 5 4.4
2019-Dec-07 07:00 349 3 gusting 7 4.6
2019-Dec-07 06:55 348 3 gusting 8 4.7
2019-Dec-07 06:50 349 2 gusting 8 4.9
2019-Dec-07 06:45 004 3 gusting 7 5.1
2019-Dec-07 06:40 343 3 gusting 7 5.3
2019-Dec-07 06:35 348 2 gusting 7 5.4
2019-Dec-07 06:30 003 4 gusting 8 5.4
2019-Dec-07 06:25 006 3 gusting 6 5.4
2019-Dec-07 06:20 011 2 gusting 5 5.5
2019-Dec-07 06:15 005 2 gusting 5 5.5
2019-Dec-07 06:10 343 2 gusting 7 5.6
2019-Dec-07 06:05 010 3 gusting 6 5.5
2019-Dec-07 06:00 360 2 gusting 4 5.8
2019-Dec-07 05:55 356 3 gusting 10 6.1
2019-Dec-07 05:50 355 3 gusting 7 6.3
2019-Dec-07 05:45 008 5 gusting 12 6.6
2019-Dec-07 05:40 003 4 gusting 6 6.8
2019-Dec-07 05:35 343 2 gusting 6 7.0
2019-Dec-07 05:30 352 2 gusting 9 7.2
2019-Dec-07 05:25 324 4 gusting 7 7.2
2019-Dec-07 05:20 317 5 gusting 10 7.3
2019-Dec-07 05:15 314 4 gusting 10 7.3
2019-Dec-07 05:10 326 3 gusting 8 7.3
2019-Dec-07 05:05 328 3 gusting 9 7.3
2019-Dec-07 05:00 326 2 gusting 6 7.5
2019-Dec-07 04:55 334 1 gusting 3 7.6
2019-Dec-07 04:50 315 2 gusting 4 7.7
2019-Dec-07 04:45 342 1 gusting 5 7.7
2019-Dec-07 04:40 323 2 gusting 5 7.8
2019-Dec-07 04:35 324 3 gusting 6 7.9
2019-Dec-07 04:30 334 3 gusting 7 8.1
2019-Dec-07 04:25 333 2 gusting 6 8.3
2019-Dec-07 04:20 343 2 gusting 4 8.5
2019-Dec-07 04:15 341 1 gusting 6 8.6
2019-Dec-07 04:10 334 3 gusting 8 8.6
2019-Dec-07 04:05 328 3 gusting 8 8.6
2019-Dec-07 04:00 346 2 gusting 5 8.7
2019-Dec-07 03:55 323 2 gusting 5 8.8
2019-Dec-07 03:50 316 5 gusting 9 8.8
2019-Dec-07 03:45 335 2 gusting 6 8.8
2019-Dec-07 03:40 326 4 gusting 8 8.7
2019-Dec-07 03:35 315 3 gusting 11 8.1
2019-Dec-07 03:30 292 1 gusting 3 8.1
2019-Dec-07 03:25 287 1 gusting 3 8.1
2019-Dec-07 03:20 289 1 gusting 3 8.1
2019-Dec-07 03:15 292 1 gusting 3 8.2
2019-Dec-07 03:10 285 1 gusting 5 8.3
2019-Dec-07 03:05 284 1 gusting 3 8.5
2019-Dec-07 03:00 297 2 gusting 4 8.7
2019-Dec-07 02:55 298 2 gusting 4 8.8
2019-Dec-07 02:50 305 2 gusting 5 8.8
2019-Dec-07 02:45 309 2 gusting 5 8.7
2019-Dec-07 02:40 293 3 gusting 10 8.9
2019-Dec-07 02:35 287 2 gusting 5 9.0
2019-Dec-07 02:30 291 2 gusting 6 9.2
2019-Dec-07 02:25 278 3 gusting 5 9.4
2019-Dec-07 02:20 291 3 gusting 6 9.3
2019-Dec-07 02:15 289 2 gusting 4 9.2
2019-Dec-07 02:10 296 2 gusting 4 9.1
2019-Dec-07 02:05 303 1 gusting 3 9.4
2019-Dec-07 02:00 294 1 gusting 2 9.6
2019-Dec-07 01:55 262 1 gusting 4 9.6
2019-Dec-07 01:50 277 1 gusting 4 9.6
2019-Dec-07 01:45 300 1 gusting 3 9.6
2019-Dec-07 01:40 284 1 gusting 4 9.6
2019-Dec-07 01:35 300 1 gusting 3 9.9
2019-Dec-07 01:30 274 1 gusting 4 10.1
2019-Dec-07 01:25 267 2 gusting 4 10.1
2019-Dec-07 01:20 281 2 gusting 4 10.0
2019-Dec-07 01:15 276 1 gusting 3 10.0
2019-Dec-07 01:10 269 1 gusting 5 10.0
2019-Dec-07 01:05 264 2 gusting 5 9.9
2019-Dec-07 01:00 275 1 gusting 3 9.7
2019-Dec-07 00:55 271 0 gusting 3 9.7
2019-Dec-07 00:50 256 1 gusting 3 9.7
2019-Dec-07 00:45 246 1 gusting 3 9.7
2019-Dec-07 00:40 252 1 gusting 3 9.7
2019-Dec-07 00:35 291 1 gusting 3 9.6
2019-Dec-07 00:30 267 1 gusting 2 9.6
2019-Dec-07 00:25 257 1 gusting 4 9.6
2019-Dec-07 00:20 242 2 gusting 4 9.5
2019-Dec-07 00:15 232 2 gusting 5 9.5
2019-Dec-07 00:10 224 4 gusting 6 9.5
2019-Dec-07 00:05 238 2 gusting 4 9.5
2019-Dec-07 00:00 229 3 gusting 5 9.6
2019-Dec-06 23:55 222 3 gusting 6 9.6
2019-Dec-06 23:50 221 4 gusting 6 9.7
2019-Dec-06 23:45 222 4 gusting 8 9.6
2019-Dec-06 23:40 219 3 gusting 6 9.5
2019-Dec-06 23:35 217 3 gusting 6 9.5
2019-Dec-06 23:30 220 3 gusting 5 9.5
2019-Dec-06 23:25 219 2 gusting 4 9.4
2019-Dec-06 23:20 226 1 gusting 3 9.3
2019-Dec-06 23:15 260 0 gusting 2 9.3
2019-Dec-06 23:10 260 1 gusting 3 9.3
2019-Dec-06 23:05 233 2 gusting 4 9.4
2019-Dec-06 23:00 239 2 gusting 4 9.4
2019-Dec-06 22:55 229 3 gusting 6 9.3
2019-Dec-06 22:50 228 3 gusting 5 9.3
2019-Dec-06 22:45 224 3 gusting 7 9.2
2019-Dec-06 22:40 220 4 gusting 7 9.4
2019-Dec-06 22:35 227 4 gusting 8 9.7
2019-Dec-06 22:30 224 5 gusting 8 9.7
2019-Dec-06 22:25 229 5 gusting 8 9.7
2019-Dec-06 22:20 222 5 gusting 9 9.8
2019-Dec-06 22:15 221 5 gusting 8 9.8
2019-Dec-06 22:10 224 3 gusting 6 10.0
2019-Dec-06 22:05 242 3 gusting 6 10.2
2019-Dec-06 22:00 225 4 gusting 7 10.1
2019-Dec-06 21:55 216 4 gusting 6 10.1
2019-Dec-06 21:50 215 5 gusting 9 10.2
2019-Dec-06 21:45 221 5 gusting 10 10.2
2019-Dec-06 21:40 218 6 gusting 8 10.3
2019-Dec-06 21:35 212 5 gusting 8 10.3
2019-Dec-06 21:30 210 5 gusting 9 10.4
2019-Dec-06 21:25 217 6 gusting 9 10.5
2019-Dec-06 21:20 218 5 gusting 9 10.6
2019-Dec-06 21:15 222 8 gusting 13 10.8
2019-Dec-06 21:10 216 6 gusting 12 10.7
2019-Dec-06 21:05 220 7 gusting 11 10.8
2019-Dec-06 21:00 220 7 gusting 11 10.9
2019-Dec-06 20:55 222 8 gusting 13 10.9
2019-Dec-06 20:50 224 8 gusting 12 11.0
2019-Dec-06 20:45 223 8 gusting 14 11.0
2019-Dec-06 20:40 216 7 gusting 12 11.1
2019-Dec-06 20:35 214 8 gusting 14 11.2
2019-Dec-06 20:30 219 9 gusting 14 11.4
2019-Dec-06 20:25 221 9 gusting 14 11.4
2019-Dec-06 20:20 219 8 gusting 13 11.5
2019-Dec-06 20:15 221 9 gusting 15 11.6
2019-Dec-06 20:10 216 9 gusting 13 11.8
2019-Dec-06 20:05 217 8 gusting 14 11.7
2019-Dec-06 20:00 222 8 gusting 13 11.7
2019-Dec-06 19:55 221 7 gusting 12 11.7
2019-Dec-06 19:50 215 8 gusting 11 11.7
2019-Dec-06 19:45 218 8 gusting 13 11.7
2019-Dec-06 19:40 213 8 gusting 13 11.8
2019-Dec-06 19:35 218 9 gusting 15 11.9
2019-Dec-06 19:30 227 8 gusting 12 12.0
2019-Dec-06 19:25 219 8 gusting 11 12.2
2019-Dec-06 19:20 230 10 gusting 15 12.2
2019-Dec-06 19:15 226 8 gusting 15 12.2
2019-Dec-06 19:10 222 9 gusting 14 12.3
2019-Dec-06 19:05 218 9 gusting 13 12.4
2019-Dec-06 19:00 225 11 gusting 15 12.2
2019-Dec-06 18:55 220 9 gusting 14 12.3
2019-Dec-06 18:50 223 10 gusting 17 12.4
2019-Dec-06 18:45 215 8 gusting 13 12.4
2019-Dec-06 18:40 217 9 gusting 16 12.5
2019-Dec-06 18:35 209 9 gusting 12 12.6
2019-Dec-06 18:30 204 7 gusting 11 12.6
2019-Dec-06 18:25 205 6 gusting 9 12.3
2019-Dec-06 18:20 210 7 gusting 11 12.0
2019-Dec-06 18:15 210 6 gusting 10 11.8
2019-Dec-06 18:10 210 7 gusting 11 11.7
2019-Dec-06 18:05 208 6 gusting 9 11.6
2019-Dec-06 18:00 206 8 gusting 12 11.6
2019-Dec-06 17:55 203 9 gusting 15 11.5
2019-Dec-06 17:50 204 8 gusting 14 11.6
2019-Dec-06 17:45 207 8 gusting 15 11.4
2019-Dec-06 17:40 208 8 gusting 11 11.3
2019-Dec-06 17:35 208 9 gusting 14 11.3
2019-Dec-06 17:30 206 10 gusting 15 11.3
2019-Dec-06 17:25 196 8 gusting 14 11.3
2019-Dec-06 17:20 197 9 gusting 14 11.2
2019-Dec-06 17:15 196 8 gusting 12 11.2
2019-Dec-06 17:10 200 9 gusting 14 11.2
2019-Dec-06 17:05 205 8 gusting 14 11.7
2019-Dec-06 17:00 210 11 gusting 20 11.4
2019-Dec-06 16:55 206 11 gusting 18 11.4
2019-Dec-06 16:50 201 9 gusting 14 11.1
2019-Dec-06 16:45 193 9 gusting 14 11.2
2019-Dec-06 16:40 200 8 gusting 12 11.0
2019-Dec-06 16:35 203 7 gusting 14 10.7
2019-Dec-06 16:30 199 8 gusting 13 10.2
2019-Dec-06 16:25 194 8 gusting 13 9.6
2019-Dec-06 16:20 196 8 gusting 13 9.2
2019-Dec-06 16:15 194 7 gusting 10 9.0
2019-Dec-06 16:10 191 7 gusting 11 8.8
2019-Dec-06 16:05 185 8 gusting 11 8.6
2019-Dec-06 16:00 184 7 gusting 11 8.6
2019-Dec-06 15:55 194 7 gusting 11 8.7
2019-Dec-06 15:50 193 7 gusting 10 8.6
2019-Dec-06 15:45 175 7 gusting 11 8.2
2019-Dec-06 15:40 182 7 gusting 11 7.9
2019-Dec-06 15:35 181 7 gusting 10 7.7
2019-Dec-06 15:30 178 6 gusting 8 7.5
2019-Dec-06 15:25 186 6 gusting 9 7.2
2019-Dec-06 15:20 187 5 gusting 9 7.1
2019-Dec-06 15:15 186 5 gusting 7 6.8
2019-Dec-06 15:10 185 4 gusting 6 6.6
2019-Dec-06 15:05 187 5 gusting 9 6.4
2019-Dec-06 15:00 181 6 gusting 9 6.1